Location: Borojevi?i
(45.0486°N, 16.2297°E)
Time: 07:42:46
(UTC+00:00)

Meteor 1-14 Rocket - Pass Details

Date: 08 August 2020
Orbit: 833 x 919 km, 81.3° (Epoch: 26 September)

Event Time Altitude Azimuth Distance (km) Brightness Sun altitude
Exits shadow 20:46:50 44° 165° (SSE) 1,220 4.6 -22.0°
Maximum altitude 20:48:41 70° 97° (E) 955 4.2 -22.2°
Drops below altitude 10° 20:54:36 10° 15° (NNE) 2,605 7.3 -22.7°
Sets 20:57:06 0° 13° (NNE) 3,558 8.1 -23.0°
